Regional Weather Roundup
Issued by NWS

Home | Current Version | Previous Version | Graphics & Text | Print | Product List | Glossary On
Versions: 1 2 3 4 5 6 7 8 9 10 11 12 13 14 15 16 17 18 19 20 21 22 23 24 25 26 27 28 29 30 31 32 33 34 35 36 37 38 39 40 41 42 43 44 45 46 47 48 49 50
000
ASUS43 KFSD 250710
RWRSD

WEATHER ROUNDUP FOR SOUTH DAKOTA
NATIONAL WEATHER SERVICE SIOUX FALLS SD
200 AM CDT FRI APR 25 2014

NOTE: "FAIR" INDICATES FEW OR NO CLOUDS BELOW 12,000 FEET WITH NO
SIGNIFICANT WEATHER AND/OR OBSTRUCTIONS TO VISIBILITY.


SDZ001>005-009-010-012>017-250800-
NORTHWEST AND NORTH CENTRAL SOUTH DAKOTA

CITY           SKY/WX    TMP DP  RH WIND       PRES   REMARKS
BUFFALO          N/A     43  31  62 W7        29.74R
FAITH            N/A     47  28  47 SW7       29.79S
MOBRIDGE       CLOUDY    45  30  55 CALM      29.75R
$$

SDZ012>016-024>037-041>051-057-063-072>074-250800-
SOUTHWEST AND SOUTH CENTRAL SOUTH DAKOTA

CITY           SKY/WX    TMP DP  RH WIND       PRES   REMARKS
RAPID CTY ARPT CLOUDY    39  28  64 W5        29.82R
PIERRE         MOCLDY    41  28  60 NW6       29.78R
CUSTER         CLOUDY    36  23  59 N5        29.86R
ELLSWORTH AFB  CLOUDY    44  27  51 SW6       29.82R
PHILIP         CLOUDY    42  30  62 W6        29.80R
PINE RIDGE     CLOUDY    51  26  37 SE12      29.77F
SPEARFISH      CLOUDY    41  28  60 CALM      29.84R
WINNER         PTSUNNY   49  26  41 SW7       29.81R
$$

SDZ004>011-016>023-039-040-250800-
NORTHEAST SOUTH DAKOTA

CITY           SKY/WX    TMP DP  RH WIND       PRES   REMARKS
ABERDEEN       CLOUDY    39  32  76 NW5       29.76S
WATERTOWN      FOG       37  37 100 CALM      29.74F VSB 3/4
SISSETON         N/A     38  36  92 N6        29.73R
$$

SDZ017-020-022-023-036>040-048>070-250800-
SOUTHEAST SOUTH DAKOTA

CITY           SKY/WX    TMP DP  RH WIND       PRES   REMARKS
SIOUX FALLS    PTCLDY    40  33  76 CALM      29.77S
HURON          MOCLDY    41  26  55 NW5       29.76S
CHAMBERLAIN      N/A     45  28  51 W6        29.79R
MITCHELL       PTCLDY    47  29  49 SW5       29.77S
YANKTON        MOCLDY    46  25  42 SW3       29.80S
$$

ABBREVIATIONS USED IN REMARKS
   TC - TEMPERATURE IN CELSIUS
  WCI - WIND CHILL INDEX
   HX - HEAT INDEX
  VSB - VISIBILITY




USA.gov is the U.S. government's official web portal to all federal, state and local government web resources and services.